User: anonymous
Location: Unspecified
(0.0000°N, 0.0000°E)
Time: 20:15:11
(UTC+00:00)
Language:

USA 207 - Orbit

View from above orbital plane
View from above orbital plane
View from above satellite
View from above satellite

Ground track
Ground track

The orbit data is extracted from the following two-line orbital elements,

1 35815U 09047A   14236.05526698 0.00000000  00000-0  00000-0 0    02
2 35815   0.0834  39.5603 0010500 217.6425 142.4050  1.00270000    04
Epoch (UTC): 24 August 2014 01:19:35
Eccentricity: 0.0010500
inclination: 0.0834°
perigee height: 35742 km
apogee height: 35831 km
right ascension of ascending node: 39.5603°
argument of perigee: 217.6425°
revolutions per day: 1.00270000
mean anomaly at epoch: 142.4050°
orbit number at epoch: 0

The dashed part of the orbit path shows where the satellite is in the earth's shadow,  

DLR